Flag for Germany Weather past 2 weeks in Warstein, North Rhine-Westphalia, Germany

Now
57 °F

Light rain. Partly cloudy.


Feels Like: 56 °F
Forecast: 49 / 62 °F
Wind: 6 mph from Southwest

Location: Paderborn / Lippstadt

Current Time: Aug 31, 2014 at 2:37:05 AM

Latest Report: Aug 30, 2014 at 11:50 PM


Visibility: N/A

Pressure: 30.01 "Hg

Humidity: 94%

Dew point: 55 °F

Location of WarsteinLocation

Historic Weather in Warstein — Graph

°F

Warstein temperature yesterday

Maximum temperature yesterday: 63 °F (at 10:50 AM)
Minimum temperature yesterday: 57 °F (at 12:20 AM)
Average temperature yesterday: 60 °F

Past Weeks' High & Low Weather Summary

 TemperatureHumidityPressure
High72 °F (Aug 28, 2:50 PM)100% (Aug 16, 12:20 AM)30.09 "Hg (Aug 16, 12:20 AM)
Low45 °F (Aug 24, 4:20 AM)43% (Aug 27, 4:20 PM)29.68 "Hg (Aug 18, 4:20 AM)
Average56 °F74%29.94 "Hg
* Reported Aug 15 11:20 PM — Aug 30 11:50 PM, Warstein, Weather by CustomWeather, © 2014

Note: Actual official high and low records may vary slightly from our data, if they occured in-between our weather recording intervals... More about our weather records

Advertising

Warstein weather history for previous 24 hours

 ConditionsComfort  
Time TempWeatherWind HumidityBarometerVisibility
11:50 PM
Aug 30
57 °FLight rain. Partly cloudy.6 mph94%30.01 "HgN/A
11:20 PM57 °FLight rain. Passing clouds.8 mph100%30.01 "HgN/A
10:50 PM57 °FPartly cloudy.5 mph100%30.01 "HgN/A
10:20 PM59 °FPartly cloudy.9 mph94%30.01 "HgN/A
9:50 PM59 °FPassing clouds.6 mph94%30.01 "HgN/A
9:20 PM59 °FRain. Passing clouds.16 mph94%30.01 "Hg4 mi
8:50 PM59 °FLight rain. Partly sunny.10 mph82%30.01 "Hg4 mi
8:20 PM61 °FPartly sunny.14 mph77%29.98 "HgN/A
7:20 PM63 °FPartly sunny.12 mph73%29.98 "HgN/A
6:50 PM63 °FPartly sunny.9 mph73%29.98 "HgN/A
6:20 PM63 °FPartly sunny.10 mph73%30.01 "HgN/A
5:50 PM63 °FPartly sunny.13 mph73%30.01 "HgN/A
5:20 PM63 °FPartly sunny.13 mph73%30.01 "HgN/A
4:50 PM63 °FPartly sunny.13 mph73%30.01 "HgN/A
4:20 PM63 °FBroken clouds.15 mph73%30.01 "HgN/A
3:50 PM63 °FBroken clouds.15 mph73%30.01 "HgN/A
3:20 PM63 °FBroken clouds.14 mph73%30.01 "HgN/A
2:50 PM61 °FBroken clouds.13 mph77%30.04 "HgN/A
2:20 PM63 °FBroken clouds.12 mph68%30.04 "HgN/A
1:50 PM63 °FBroken clouds.14 mph73%30.04 "HgN/A
1:20 PM61 °FBroken clouds.14 mph77%30.04 "HgN/A
12:50 PM61 °FPartly sunny.12 mph72%30.04 "HgN/A
12:20 PM63 °FBroken clouds.15 mph68%30.04 "HgN/A
11:50 AM63 °FBroken clouds.14 mph68%30.04 "HgN/A
11:20 AM63 °FBroken clouds.14 mph68%30.04 "HgN/A
10:50 AM63 °FBroken clouds.15 mph68%30.04 "HgN/A
10:20 AM61 °FBroken clouds.12 mph72%30.04 "HgN/A
9:50 AM59 °FBroken clouds.12 mph77%30.04 "HgN/A
9:20 AM59 °FBroken clouds.12 mph77%30.04 "HgN/A
8:50 AM59 °FBroken clouds.12 mph77%30.04 "HgN/A
8:20 AM59 °FBroken clouds.12 mph72%30.01 "HgN/A
7:50 AM59 °FBroken clouds.10 mph72%30.01 "HgN/A
7:20 AM57 °FPartly cloudy.10 mph77%30.01 "HgN/A
6:50 AM57 °FPartly cloudy.12 mph77%30.01 "HgN/A
6:20 AM57 °FClear.12 mph77%30.01 "Hg10 mi
5:50 AM57 °FClear.12 mph77%30.01 "Hg10 mi
5:20 AM57 °FClear.8 mph77%30.01 "Hg10 mi
4:50 AM57 °FClear.8 mph77%30.04 "Hg10 mi
4:20 AM57 °FClear.9 mph77%30.04 "Hg10 mi
Weather by CustomWeather, © 2014

See weather overviewHow to use our weather pages